Weather Roundup
Issued by NWS

Home | Current Version | Previous Version | Graphics & Text | Print | Product List | Glossary Off
Versions: 1 2 3 4 5 6 7 8 9 10 11 12 13 14 15 16 17 18 19 20 21 22 23 24 25 26 27 28 29 30 31 32 33 34 35 36 37 38 39 40 41 42 43 44 45 46 47 48 49 50

000
NZUS93 KARX 310110
HRRWXR

CURRENT HOURLY OBSERVATIONS ACROSS
MUCH OF THE UPPER MISSISSIPPI VALLEY
NATIONAL WEATHER SERVICE LA CROSSE WI
800 PM CDT THU OCT 30 2014


...SOUTHEAST MINNESOTA...


CITY           SKY/WX    TMP DP  RH WIND       PRES   REMARKS
ROCHESTER      CLOUDY    44  36  73 N13       30.16R
ROCHESTER/MAYO CLOUDY    44  34  67 NW15G25   30.16R
WINONA         CLOUDY    46  36  66 NW18G25   30.14R
AUSTIN         CLOUDY    45  36  70 NW18G26   30.17R
ALBERT LEA     CLOUDY    45  36  70 NW20G25   30.19R
DODGE CENTER   CLOUDY    45  37  76 N22G31    30.18R
PRESTON        CLOUDY    43  36  77 N10       30.14R
OWATONNA       CLEAR     45  32  61 NW18G28   30.21R
FARIBAULT      CLOUDY    43  34  70 NW14      30.22R
$$

...ELSEWHERE IN MINNESOTA...


CITY           SKY/WX    TMP DP  RH WIND       PRES   REMARKS
MINNEAPOLIS    CLOUDY    42  28  57 NW22G31   30.23R
INTNL FALLS    PTCLDY    28  19  69 N15G31    30.35R WCI  16
DULUTH         CLOUDY    31  20  63 N20G32    30.21R WCI  19
RED WING       CLOUDY    45  28  53 NW13G21   30.19R
REDWOOD FALLS  CLOUDY    39  31  72 NW17G29   30.32R WCI  30
MANKATO        CLOUDY    43  28  56 NW20G29   30.25R
WORTHINGTON    CLOUDY    37  28  70 N25G33    30.32R WCI  26
FAIRMONT       CLOUDY    45  30  57 NW22G36   30.25R
$$

...SOUTHWEST WISCONSIN...


CITY           SKY/WX    TMP DP  RH WIND       PRES   REMARKS
LA CROSSE      CLOUDY    47  39  74 NW8       30.11R
PRAIRIE DU CHI CLOUDY    46  38  73 CALM      30.10S
BOSCOBEL       CLOUDY    48  37  65 CALM      30.10R
LONE ROCK      CLOUDY    50  37  61 W6        30.08S
PLATTEVILLE    CLOUDY    46  39  76 NW6       30.09S
FORT MC COY    CLOUDY    44  37  75 W5        30.10R
CAMP DOUGLAS   CLOUDY    45  43  93 NW7       30.07S
VIROQUA        CLOUDY    42  37  83 NW5       30.08S
WIS DELLS      CLOUDY    45  35  69 W5        30.06S
$$

...ELSEWHERE IN WISCONSIN...


CITY           SKY/WX    TMP DP  RH WIND       PRES   REMARKS
MILWAUKEE      CLOUDY    49  34  56 W6        30.04F
MADISON        CLOUDY    47  36  65 VRB3      30.06S
GREEN BAY      CLOUDY    46  35  65 NW9       30.02S
EAU CLAIRE     CLOUDY    43  31  62 NW12      30.14R
BLACK RVR FLS  CLOUDY    45  33  64 N16G25    30.11R
MEDFORD        CLOUDY    39  32  75 NW7       30.07S WCI  34
WAUSAU         CLOUDY    41  33  73 NW12      30.04S
WIS RAPIDS     CLOUDY    45  34  65 N13       30.08R
MARSHFIELD     CLOUDY    42  33  70 NW13      30.07R
RICE LAKE      CLOUDY    39  32  75 NW10G17   30.18R WCI  32
$$

...NORTHEAST IOWA...


CITY           SKY/WX    TMP DP  RH WIND       PRES   REMARKS
DECORAH        CLOUDY    45  37  76 NW8       30.11R
MASON CITY     CLOUDY    47  37  68 NW14      30.18R
CHARLES CITY   CLOUDY    46  36  66 NW13G20   30.15R
OELWEIN        CLOUDY    48  39  71 N6        30.12R
$$

...ELSEWHERE IN IOWA...


CITY           SKY/WX    TMP DP  RH WIND       PRES   REMARKS
DES MOINES     CLOUDY    55  37  50 N17       30.12R
IOWA CITY      CLOUDY    50  39  66 NE5       30.11R
FORT DODGE     MOCLDY    48  37  66 N14G21    30.20R
$$

...NORTHERN ILLINOIS...


CITY           SKY/WX    TMP DP  RH WIND       PRES   REMARKS
CHICAGO-OHARE  CLOUDY    48  36  63 W6        30.05F
CHICAGO-MIDWAY CLOUDY    50  36  58 W5        30.06S
MOLINE         CLOUDY    47  38  71 S5        30.08R
ROCKFORD       CLOUDY    47  35  63 W3        30.08F
PEORIA         MOCLDY    46  43  89 CALM      30.08S FOG
$$

NOTE: "FAIR" INDICATES FEW OR NO CLOUDS BELOW 12,000 FEET WITH NO
SIGNIFICANT WEATHER AND/OR OBSTRUCTIONS TO VISIBILITY. WIND
SPEEDS ARE IN MILES-PER-HOUR.



USA.gov is the U.S. government's official web portal to all federal, state and local government web resources and services.